Location: Cambroso
(45.2833°N, 12.0850°E)
Time: 16:05:41
(UTC+00:00)

Cosmos 1844 - Pass Details

Date: 21 January 2021
Orbit: 821 x 869 km, 70.9° (Epoch: 27 February)

Event Time Altitude Azimuth Distance (km) Brightness Sun altitude
Rises 17:31:30 0° 194° (SSW) 3,369 7.2 -15.3°
Reaches altitude 10° 17:33:55 10° 191° (SSW) 2,446 6.4 -15.7°
Maximum altitude 17:39:28 64° 112° (ESE) 934 3.7 -16.7°
Enters shadow 17:43:55 17° 34° (NNE) 2,052 5.3 -17.5°
